date,batt_volt,AirTemp_C,Solar_kW,RH,Manual_BP,StationID,WS_ms,PTemp,WS_15min_max,Prog_Sig,Solar_Raw,Bar_mbar,Solar_MJ,Max_WS_2min,Pressure_Raw,Rain_mm,WD_15min_ave,Max_AirTemp_1min,WindDir,WS_15min_med,WS_15min_ave,Elevation_Correction
2016-12-09T14:04:22Z,13.25309,-1.159599,0.1124599,70.89646,0,1156,6.1348,1.734879,,43690,7.87219,1001.966,0.0005622993,10.23,1000.165,0,,-0.9900001,298.0691,,,1.80078
2016-12-09T14:19:23Z,13.24182,-0.9904899,0.1047368,74.0163,0,1156,3.8416,1.841064,,43690,7.331572,1001.966,0.0005236837,4.9,1000.165,0,,-0.9900001,282.2419,,,1.80078
2016-12-09T14:34:23Z,13.24734,-1.02441,0.2717377,70.96338,0,1156,6.2132,1.904324,,43690,19.02164,1001.966,0.001358688,6.39,1000.165,0,,-0.9900001,305.6517,,,1.80078
2016-12-09T14:49:23Z,13.23076,-0.854805,0.1954774,68.82634,0,1156,3.4496,2.076027,,43690,13.68342,1001.966,0.0009773868,10.19,1000.165,0,,-0.6850001,319.5723,,,1.80078
2016-12-09T15:04:23Z,13.21419,-0.6173554,0.2181382,69.40301,0,1156,7.3892,2.566284,,43690,15.26968,1001.787,0.001090691,9.33,999.9866,0,,-0.448,300.2328,,,1.80078
2016-12-09T15:19:23Z,13.21419,-0.9226494,0.1423609,70.01358,0,1156,7.2324,2.821579,,43690,9.965266,1001.787,0.0007118047,6.468,999.9866,0,,-0.7190001,303.0988,,,1.80078
2016-12-09T15:34:23Z,13.22524,-0.6512756,0.09024182,68.92811,0,1156,6.8208,2.75832,,43690,6.316928,1001.787,0.0004512091,9.55,999.9866,0,,-0.617,292.3813,,,1.80078
2016-12-09T15:49:23Z,13.20314,0.09498978,0.4675861,63.73815,0,1156,6.781599,2.864506,,43690,32.73103,1001.787,0.002337931,7.017,999.9866,0,,0.4,331.9756,,,1.80078
2016-12-09T16:04:23Z,13.19032,-0.6885986,0.08540224,65.46248,0,1156,6.3308,3.442875,,43690,5.978157,1001.456,0.0004270112,8.96,999.6554,0,,-0.45,289.2254,,,1.80078
2016-12-09T16:19:23Z,13.19535,-0.08214188,0.189139,64.50617,0,1156,4.4296,3.506134,,43690,13.23973,1001.456,0.0009456949,8.019999,999.6554,0,,-0.184,297.7441,,,1.80078
2016-12-09T16:34:23Z,13.18397,0.4951096,0.2972184,59.41996,0,1156,6.174,3.763687,,43690,20.80529,1001.456,0.001486092,9.13,999.6554,0,,0.766,298.6402,,,1.80078
2016-12-09T16:49:23Z,13.1711,-0.0540123,0.4868088,56.83317,0,1156,5.88,4.21328,,43690,34.07662,1001.456,0.002434044,9.0,999.6554,0,,0.014,307.4759,,,1.80078
2016-12-09T17:04:23Z,13.14896,1.064777,0.09312011,60.18991,0,1156,6.5856,4.728386,,43690,6.518408,1002.025,0.0004656005,7.291,1000.224,0,,1.234,290.7895,,,1.80078
2016-12-09T17:19:23Z,13.14896,1.132599,0.3883336,57.64668,0,1156,6.9188,5.202831,,43690,27.18335,1002.025,0.001941668,9.78,1000.224,0,,1.133,286.6965,,,1.80078
2016-12-09T17:34:23Z,13.14896,0.5561333,0.3757399,54.01832,0,1156,8.8984,5.440052,,43690,26.30179,1002.025,0.0018787,9.86,1000.224,0,,0.8610001,294.2083,,,1.80078
2016-12-09T17:49:23Z,13.14869,0.7923889,0.3646448,58.62846,0,1156,5.1548,5.376793,,43690,25.52514,1002.025,0.001823224,10.04,1000.224,0,,0.623,306.3582,,,1.80078
2016-12-09T18:04:23Z,13.14895,0.2509041,0.06464053,57.03624,0,1156,8.212401,5.116978,,43690,4.524837,1001.535,0.0003232026,11.66,999.7343,0,,0.556,281.1829,,,1.80078
2016-12-09T18:19:23Z,13.16553,0.2848358,0.3458916,59.40996,0,1156,9.564799,4.708054,,43690,24.21241,1001.535,0.001729458,8.76,999.7343,0,,0.387,288.767,,,1.80078
2016-12-09T18:34:23Z,13.17105,-0.4611816,0.04583354,57.30755,0,1156,5.6448,4.427906,,43690,3.208348,1001.535,0.0002291677,9.25,999.7343,0,,-0.292,305.9091,,,1.80078
2016-12-09T18:49:23Z,13.18209,0.2170143,0.2759581,57.64665,0,1156,5.8408,3.955723,,43690,19.31707,1001.535,0.001379791,7.624001,999.7343,0,,0.353,312.6985,,,1.80078
2016-12-09T19:04:23Z,13.16,0.8952102,0.2619699,63.85214,0,1156,8.643599,4.23587,,43690,18.33789,1002.106,0.001309849,12.45,1000.305,0,,0.827,293.7507,,,1.80078
2016-12-09T19:19:23Z,13.16,-0.6307297,0.04004474,63.81823,0,1156,6.3308,4.427906,,43690,2.803132,1002.106,0.0002002237,12.17,1000.305,0,,-0.563,299.2641,,,1.80078
2016-12-09T19:34:23Z,13.20418,-0.8680992,0.02991354,64.66598,0,1156,7.271599,3.806614,,43690,2.093948,1002.106,0.0001495677,11.8,1000.305,0,,-0.766,316.1654,,,1.80078
2016-12-09T19:49:23Z,13.2513,-0.7897644,0.1138692,64.54764,0,1156,6.86,3.013615,,43690,7.970844,1002.106,0.000569346,12.23,1000.305,0,,-0.7560001,301.3914,,,1.80078
2016-12-09T20:04:23Z,13.24177,-0.9566536,0.03281461,64.31467,0,1156,6.781599,2.67247,,43690,2.297023,1004.227,0.000164073,11.13,1002.426,0,,-0.821,309.8416,,,1.80078
2016-12-09T20:19:23Z,13.24733,-1.499329,0.01882056,62.55087,0,1156,4.7432,2.331322,,43690,1.317439,1004.227,9.410278e-05,9.0,1002.426,0,,-1.364,300.5457,,,1.80078
2016-12-09T20:34:23Z,13.27495,-1.702854,0.004826574,62.21166,0,1156,5.5664,1.820732,,43690,0.3378602,1004.227,2.413287e-05,8.92,1002.426,0,,-1.703,296.8127,,,1.80078
2016-12-09T20:49:23Z,13.286,-1.905529,0.001447981,62.17913,0,1156,4.9,1.30788,,43690,0.1013586,1004.227,7.239902e-06,8.979999,1002.426,0,,-1.804,336.2941,,,1.80078
2016-12-09T21:04:23Z,13.30052,-2.064724,0.0004826602,60.87289,0,1156,3.0184,0.8831406,,43690,0.03378621,1005.162,2.413301e-06,9.21,1003.361,0,,-1.997,314.0057,,,1.80078
2016-12-09T21:19:23Z,13.3126,-2.232811,0.0,61.45227,0,1156,3.724,0.5013275,,43690,0.0,1005.162,0.0,7.958,1003.361,0,,-2.131,334.5935,,,1.80078
2016-12-09T21:34:23Z,13.34025,-2.26672,0.0,62.60602,0,1156,5.3116,0.1172562,,43690,0.0,1005.162,0.0,7.526001,1003.361,0,,-2.335,292.119,,,1.80078
2016-12-09T21:49:23Z,13.35682,-2.368519,-0.0004827417,60.87545,0,1156,3.7632,-0.2012978,,43690,0.0,1005.162,-2.413709e-06,7.84,1003.361,0,,-2.301,319.1747,,,1.80078
2016-12-09T22:04:23Z,13.35227,-2.333183,-0.0004827417,59.75789,0,1156,7.016799,-0.4362602,,43690,0.0,1005.723,-2.413709e-06,8.309999,1003.922,0,,-2.198,292.419,,,1.80078
2016-12-09T22:19:23Z,13.36419,-2.328491,-0.0004827417,62.0392,0,1156,6.762,-0.5424461,,43690,0.0,1005.723,-2.413709e-06,6.586,1003.922,0,,-2.295,326.8648,,,1.80078
2016-12-09T22:34:23Z,13.35908,-2.260429,0.0,61.4965,0,1156,6.6444,-0.6486282,,43690,0.0,1005.723,0.0,9.059999,1003.922,0,,-2.227,286.7943,,,1.80078
2016-12-09T22:49:23Z,13.37015,-2.463974,-0.0004827417,62.17541,0,1156,5.5272,-0.7118874,,43690,0.0,1005.723,-2.413709e-06,7.624001,1003.922,0,,-2.328,301.5901,,,1.80078
2016-12-09T23:04:23Z,13.36462,-2.362129,0.0,62.61666,0,1156,4.5668,-0.797741,,43690,0.0,1006.44,0.0,10.86,1004.639,0,,-2.226,284.0241,,,1.80078
2016-12-09T23:19:23Z,13.36462,-2.463943,0.0,61.53062,0,1156,4.5668,-0.8203316,,43690,0.0,1006.44,0.0,6.605,1004.639,0,,-2.43,331.8554,,,1.80078
2016-12-09T23:34:23Z,13.36462,-2.531822,0.0,61.87001,0,1156,2.548,-0.9039269,,43690,0.0,1006.44,0.0,6.272,1004.639,0,,-2.396,277.2771,,,1.80078
2016-12-09T23:49:23Z,13.36983,-2.396065,0.0,64.00814,0,1156,4.6648,-0.8835907,,43690,0.0,1006.44,0.0,5.566,1004.639,0,,-2.328,339.9277,,,1.80078
2016-12-10T00:04:23Z,13.35909,-2.430004,0.0,63.533,0,1156,2.4304,-0.7344818,,43690,0.0,1007.173,0.0,5.076,1005.372,0,,-2.362,336.1928,,,1.80078
2016-12-10T00:19:23Z,13.34804,-2.463943,0.0004827422,63.49906,0,1156,2.9008,-0.4995194,,43690,0.03379196,1007.173,2.413711e-06,5.253,1005.372,0,,-2.396,281.7831,,,1.80078
2016-12-10T00:34:23Z,13.35331,-2.431805,-0.0004827419,65.43043,0,1156,3.8808,-0.3300743,,43690,0.0,1007.173,-2.41371e-06,4.88,1005.372,0,,-2.432,301.6723,,,1.80078
2016-12-10T00:49:23Z,13.35142,-2.502304,0.0,64.9847,0,1156,3.92,-0.158371,,43690,0.0,1007.173,0.0,3.587,1005.372,0,,-2.435,302.2053,,,1.80078
2016-12-10T01:04:23Z,13.36245,-2.436279,0.0,66.37276,0,1156,4.0964,-0.158371,,43690,0.0,1007.987,0.0,6.174,1006.186,0,,-2.436,312.6706,,,1.80078
2016-12-10T01:19:23Z,13.35131,-2.470287,0.0,65.28677,0,1156,2.3716,-0.09511185,,43690,0.0,1007.987,0.0,3.998,1006.186,0,,-2.368,278.6276,,,1.80078
2016-12-10T01:34:23Z,13.35683,-2.707817,0.0,63.31866,0,1156,1.5876,-0.03185272,,43690,0.0,1007.987,0.0,5.606,1006.186,0,,-2.538,294.1671,,,1.80078
2016-12-10T01:49:23Z,13.34578,-2.707817,0.0,62.60608,0,1156,4.8412,0.01107025,,43690,0.0,1007.987,0.0,7.468001,1006.186,0,,-2.538,325.0294,,,1.80078
2016-12-10T02:04:23Z,13.35683,-3.047146,0.0,62.50428,0,1156,3.6652,-0.2238922,,43690,0.0,1008.309,0.0,6.311,1006.509,0,,-2.911,290.7942,,,1.80078
2016-12-10T02:19:23Z,13.35825,-3.34874,0.0,63.59672,0,1156,0.7644,-0.5424461,,43690,0.0,1008.309,0.0,6.115,1006.509,0,,-3.248,215.7931,,,1.80078
2016-12-10T02:34:23Z,13.37011,-3.719734,0.0,62.27716,0,1156,1.5876,-0.9265175,,43690,0.0,1008.309,0.0,3.352,1006.509,0,,-3.55,307.1078,,,1.80078
2016-12-10T02:49:23Z,13.38257,-3.886082,0.0,62.21505,0,1156,0.9995999,-1.394184,,43690,0.0,1008.309,0.0,3.273,1006.509,0,,-3.818,345.5253,,,1.80078
2016-12-10T03:04:23Z,13.39451,-4.053059,0.0,63.71332,0,1156,2.548,-1.757923,,43690,0.0,1009.21,0.0,3.077,1007.409,0,,-3.985,330.0309,,,1.80078
2016-12-10T03:19:23Z,13.37794,-3.883244,0.0,64.42632,0,1156,1.862,-1.864105,,43690,0.0,1009.21,0.0,3.097,1007.409,0,,-3.849,34.70467,,,1.80078
2016-12-10T03:34:23Z,13.37241,-3.8493,0.0,65.61437,0,1156,1.7836,-1.714996,,43690,0.0,1009.21,0.0,2.96,1007.409,0,,-3.68,342.299,,,1.80078
2016-12-10T03:49:23Z,13.37794,-3.815353,0.0,65.44465,0,1156,2.5284,-1.522961,,43690,0.0,1009.21,0.0,2.47,1007.409,0,,-3.714,0.2169042,,,1.80078
2016-12-10T04:04:23Z,13.38347,-3.985077,0.0,63.74743,0,1156,5.0372,-1.60881,,43690,0.0,1009.133,0.0,5.272,1007.332,0,,-3.985,320.97,,,1.80078
2016-12-10T04:19:23Z,13.389,-4.222687,0.0,64.32448,0,1156,2.3912,-1.67207,,43690,0.0,1009.133,0.0,3.979,1007.332,0,,-4.155,338.2742,,,1.80078
2016-12-10T04:34:23Z,13.37794,-4.25663,0.0,65.98776,0,1156,3.0968,-1.651737,,43690,0.0,1009.133,0.0,4.469,1007.332,0,,-4.189,302.9429,,,1.80078
2016-12-10T04:49:23Z,13.38347,-4.49424,0.0,67.61709,0,1156,3.2536,-1.757923,,43690,0.0,1009.133,0.0,4.92,1007.332,0,,-4.392,310.8719,,,1.80078
2016-12-10T05:04:23Z,13.40558,-4.63002,0.0,67.51525,0,1156,3.4104,-2.013218,,43690,0.0,1009.459,0.0,3.802,1007.658,0,,-4.596,319.4758,,,1.80078
2016-12-10T05:19:23Z,13.40558,-4.833683,0.0,66.29326,0,1156,1.4504,-2.184921,,43690,0.0,1009.459,0.0,4.939,1007.658,0,,-4.766,279.7582,,,1.80078
2016-12-10T05:34:23Z,13.40558,-4.901573,0.0,65.47859,0,1156,3.2536,-2.313698,,43690,0.0,1009.459,0.0,3.312,1007.658,0,,-4.766,314.9208,,,1.80078
2016-12-10T05:49:23Z,13.39453,-5.10524,0.0,63.40799,0,1156,1.5288,-2.205254,,43690,0.0,1009.459,0.0,3.802,1007.658,0,,-4.902,18.79836,,,1.80078
2016-12-10T06:04:23Z,13.39453,-5.003406,0.0,64.76576,0,1156,3.4888,-2.121662,,43690,0.0,1010.273,0.0,3.371,1008.472,0,,-4.969,5.1816,,,1.80078
2016-12-10T06:19:23Z,13.389,-5.003406,0.0,65.44465,0,1156,2.352,-2.035809,,43690,0.0,1010.273,0.0,6.252,1008.472,0,,-5.037,311.3539,,,1.80078
2016-12-10T06:34:23Z,13.389,-5.27496,0.0,66.12354,0,1156,3.9984,-2.013218,,43690,0.0,1010.273,0.0,2.666,1008.472,0,,-5.275,338.4188,,,1.80078
2016-12-10T06:49:23Z,13.389,-5.376793,0.0,66.36114,0,1156,0.8428,-2.056145,,43690,0.0,1010.273,0.0,7.252,1008.472,0,,-5.343,302.003,,,1.80078
2016-12-10T07:04:23Z,13.40005,-6.225403,0.0,60.11539,0,1156,6.1936,-2.227844,,43690,0.0,1011.332,0.0,5.488,1009.531,0,,-6.124,320.2229,,,1.80078
2016-12-10T07:19:23Z,13.42769,-7.006122,0.0,59.26678,0,1156,4.9392,-2.806213,,43690,0.0,1011.332,0.0,6.546,1009.531,0,,-6.904,333.1649,,,1.80078
2016-12-10T07:34:23Z,13.4389,-7.446663,0.0,61.64427,0,1156,2.6656,-3.4501,,43690,0.0,1011.332,0.0,5.527,1009.531,0,,-7.311,312.3732,,,1.80078
2016-12-10T07:49:23Z,13.46476,-7.437824,0.0,62.23824,0,1156,6.0172,-3.9878,,43690,0.0,1011.332,0.0,5.762,1009.531,0,,-7.439,309.9267,,,1.80078
2016-12-10T08:04:23Z,13.47095,-7.50428,0.0,61.52795,0,1156,5.5664,-4.245358,,43690,0.0,1012.237,0.0,6.429,1010.436,0,,-7.436,323.3932,,,1.80078
2016-12-10T08:19:23Z,13.47097,-7.606118,0.0,62.54668,0,1156,4.8608,-4.333469,,43690,0.0,1012.237,0.0,4.782,1010.436,0,,-7.47,286.3626,,,1.80078
2016-12-10T08:34:23Z,13.46544,-7.707985,0.0,62.17317,0,1156,2.45,-4.396725,,43690,0.0,1012.237,0.0,4.371,1010.436,0,,-7.572001,300.0804,,,1.80078
2016-12-10T08:49:23Z,13.46544,-7.707985,0.0,59.83022,0,1156,8.0164,-4.419319,,43690,0.0,1012.237,0.0,8.82,1010.436,0,,-7.64,287.327,,,1.80078
2016-12-10T09:04:23Z,13.46544,-7.97963,0.0,61.08658,0,1156,3.7828,-4.484836,,43690,0.0,1012.728,0.0,7.585001,1010.927,0,,-7.844,312.0142,,,1.80078
2016-12-10T09:19:23Z,13.4765,-8.183365,0.0,64.14261,0,1156,5.8212,-4.613613,,43690,0.0,1012.728,0.0,8.309999,1010.927,0,,-8.12,305.4567,,,1.80078
2016-12-10T09:34:23Z,13.4765,-8.353144,0.0,65.39897,0,1156,1.568,-4.722057,,43690,0.0,1012.728,0.0,3.626,1010.927,0,,-8.349999,312.0383,,,1.80078
2016-12-10T09:49:23Z,13.48756,-8.658746,0.0,65.67062,0,1156,1.8424,-4.853096,,43690,0.0,1012.728,0.0,4.43,1010.927,0,,-8.519999,9.980984,,,1.80078
2016-12-10T10:04:23Z,13.48756,-8.692703,0.0,63.97283,0,1156,3.038,-4.981872,,43690,0.0,1013.869,0.0,4.684,1012.068,0,,-8.62,333.2057,,,1.80078
2016-12-10T10:19:23Z,13.49862,-8.930394,0.0,63.49744,0,1156,4.41,-5.155834,,43690,0.0,1013.869,0.0,4.43,1012.068,0,,-8.83,321.8747,,,1.80078
2016-12-10T10:34:24Z,13.49922,-9.03003,0.0,63.4341,0,1156,4.7236,-5.372723,,43690,0.0,1013.869,0.0,5.958,1012.068,0,,-9.0,313.5074,,,1.80078
2016-12-10T10:49:24Z,13.51777,-9.230802,0.0,64.15344,0,1156,1.9992,-5.569279,,43690,0.0,1013.869,0.0,5.998,1012.068,0,,-9.16,314.4058,,,1.80078
2016-12-10T11:04:24Z,13.51864,-9.362738,0.0,65.82596,0,1156,3.4496,-5.765831,,43690,0.0,1014.652,0.0,5.802,1012.851,0,,-9.229999,299.9765,,,1.80078
2016-12-10T11:19:24Z,13.5253,-9.497414,0.0,66.6777,0,1156,3.8416,-6.027904,,43690,0.0,1014.652,0.0,4.841,1012.851,0,,-9.429999,327.9153,,,1.80078
2016-12-10T11:34:24Z,13.51427,-9.599188,0.0009664139,66.44021,0,1156,3.626,-6.204128,,43690,0.06764898,1014.652,4.83207e-06,3.626,1012.851,0,,-9.53,334.0665,,,1.80078
2016-12-10T11:49:24Z,13.51427,-9.735058,0.003865848,65.89673,0,1156,3.6456,-6.269646,,43690,0.2706093,1014.652,1.932924e-05,5.998,1012.851,0,,-9.63,320.2717,,,1.80078
2016-12-10T12:04:24Z,13.51427,-9.633156,0.01304725,66.16847,0,1156,3.528,-6.312572,,43690,0.9133078,1016.244,6.523628e-05,5.586,1014.443,0,,-9.63,315.593,,,1.80078
2016-12-10T12:19:24Z,13.5198,-9.735058,0.02271189,64.84374,0,1156,2.7048,-6.357758,,43690,1.589832,1016.244,0.0001135594,5.802,1014.443,0,,-9.599999,281.4677,,,1.80078
2016-12-10T12:34:24Z,13.53086,-9.802994,0.02947713,65.38722,0,1156,4.3904,-6.488792,,43690,2.063399,1016.244,0.0001473857,3.9,1014.443,0,,-9.599999,335.7306,,,1.80078
2016-12-10T12:49:24Z,13.53086,-9.83696,0.0488064,66.0326,0,1156,3.7436,-6.642422,,43690,3.416448,1016.244,0.000244032,3.567,1014.443,0,,-9.8,321.4052,,,1.80078
2016-12-10T13:04:24Z,13.52533,-9.735058,0.06330334,66.16847,0,1156,3.6848,-6.730534,,43690,4.431234,1016.896,0.0003165167,5.116,1015.095,0,,-9.67,304.8369,,,1.80078
2016-12-10T13:19:24Z,13.51427,-9.259516,0.1183917,67.15353,0,1156,4.1944,-6.687607,,43690,8.287422,1016.896,0.0005919587,5.449,1015.095,0,,-9.059999,348.6813,,,1.80078
2016-12-10T13:34:24Z,13.51427,-9.259516,0.1009954,64.50407,0,1156,1.8424,-6.488792,,43690,7.069678,1016.896,0.000504977,3.195,1015.095,0,,-9.29,298.8077,,,1.80078
2016-12-10T13:49:24Z,13.5198,-9.19158,0.07296797,64.53803,0,1156,1.8032,-6.445866,,43690,5.107758,1016.896,0.0003648398,3.332,1015.095,0,,-9.189999,333.0536,,,1.80078
2016-12-12T14:04:42Z,13.43336,-6.089432,0.02028495,84.75946,0,1156,4.4296,-2.892067,,43690,1.419947,1023.968,0.0001014248,4.567,1022.167,0.0,,-5.954,89.02762,,,1.80078
2016-12-12T14:19:44Z,13.42772,-5.784069,0.02366474,86.04899,0,1156,3.8612,-2.783623,,43690,1.656532,1023.968,0.0001183237,6.821,1022.167,0.0,,-5.716,125.2503,,,1.80078
2016-12-12T14:34:44Z,13.42218,-5.4786,0.01980131,86.4902,0,1156,3.7436,-2.697769,,43690,1.386092,1023.968,9.900657e-05,6.252,1022.167,0.0,,-5.513,117.3694,,,1.80078
2016-12-12T14:49:45Z,13.4277,-5.7841,0.02414674,87.16908,0,1156,4.7824,-2.654842,,43690,1.690272,1023.968,0.0001207337,5.488,1022.167,0.0,,-5.682,75.07301,,,1.80078
2016-12-12T15:04:47Z,13.43876,-5.648323,0.02607731,88.22135,0,1156,6.1348,-2.611919,,43690,1.825412,1023.064,0.0001303866,4.234,1021.263,0.0,,-5.546,115.6341,,,1.80078
2016-12-12T15:19:48Z,13.43323,-5.682266,0.02800886,88.11952,0,1156,3.9984,-2.591587,,43690,1.96062,1023.064,0.0001400443,6.233,1021.263,0.0,,-5.58,94.4739,,,1.80078
2016-12-12T15:58:21Z,13.40559,-4.93549,0.03959822,88.8663,0,1156,4.0376,-2.270771,,43690,2.771875,1023.064,0.0001979911,7.232,1021.263,0.0,,-4.868,122.31,,,1.80078
2016-12-12T16:21:25Z,13.40006,-4.76577,0.03283755,89.34152,0,1156,2.4108,-1.992886,,43690,2.298628,1020.783,0.0001641877,7.095,1018.982,0.0,,-4.664,108.8619,,,1.80078
2016-12-12T16:36:26Z,13.40559,-4.833656,0.04442727,90.02041,0,1156,7.1344,-1.864105,,43690,3.109909,1020.783,0.0002221363,10.21,1018.982,0.0,,-4.698,110.5489,,,1.80078
2016-12-12T16:51:27Z,13.42218,-4.562103,0.03670079,90.42774,0,1156,6.8208,-1.864105,,43690,2.569055,1020.783,0.0001835039,9.07,1018.982,0.0,,-4.528,108.5486,,,1.80078
2016-12-12T17:06:27Z,13.42218,-4.663937,0.02897431,90.76718,0,1156,6.0172,-1.821182,,43690,2.028202,1017.035,0.0001448715,10.56,1015.234,0.0,,-4.528,96.90805,,,1.80078
2016-12-12T17:21:29Z,13.40559,-4.46027,0.02511099,91.00479,0,1156,5.782,-1.714996,,43690,1.757769,1017.035,0.0001255549,9.189999,1015.234,0.0,,-4.392,92.78686,,,1.80078
2016-12-12T17:36:31Z,13.40006,-4.22266,0.02607514,91.71762,0,1156,12.5244,-1.58622,,43690,1.82526,1017.035,0.0001303757,9.8,1015.234,0.1,,-4.223,91.60594,,,1.80078
2016-12-12T17:59:17Z,13.39454,-4.188713,0.01303643,92.32862,0,1156,7.6244,-1.459702,,43690,0.9125502,1017.035,6.518216e-05,9.07,1015.234,0.0,,-4.121,99.5832,,,1.80078
2016-12-12T18:14:13Z,13.37795,-4.120827,0.01158777,92.66806,0,1156,4.5472,-1.310589,,43690,0.8111436,1013.94,5.793883e-05,6.84,1012.139,0.0,,-4.019,122.4064,,,1.80078
2016-12-12T18:29:15Z,13.36137,-4.155773,0.00965647,92.90308,0,1156,3.8024,-1.181812,,43690,0.6759529,1013.94,4.828235e-05,11.43,1012.139,0.0,,-4.053,60.37002,,,1.80078
2016-12-12T18:44:14Z,13.37151,-4.259125,0.01255341,93.2046,0,1156,7.6048,-1.118553,,43690,0.8787388,1013.94,6.276705e-05,9.269999,1012.139,0.0,,-4.123,142.7371,,,1.80078
2016-12-12T19:09:52Z,13.40502,-5.343472,0.009173638,92.90393,0,1156,7.271599,-1.416775,,43690,0.6421547,1011.297,4.586819e-05,7.272,1009.496,0.0,,-5.242,97.62922,,,1.80078
2016-12-12T19:24:49Z,13.39451,-5.444687,0.008690819,92.73587,0,1156,5.6056,-1.651737,,43690,0.6083573,1011.297,4.345409e-05,7.899,1009.496,0.0,,-5.309,68.63812,,,1.80078
2016-12-12T19:39:50Z,13.40558,-5.34285,0.008691922,92.66799,0,1156,8.5848,-1.843773,,43690,0.6084346,1011.297,4.345961e-05,10.64,1009.496,0.0,,-5.207,97.8961,,,1.80078
2016-12-12T19:54:50Z,13.40558,-5.071297,0.005311949,92.6001,0,1156,11.0348,-1.949959,,43690,0.3718364,1011.297,2.655974e-05,8.04,1009.496,0.0,,-5.003,141.6144,,,1.80078
2016-12-12T20:09:51Z,13.41664,-4.56213,0.00289743,92.53222,0,1156,5.4096,-1.970291,,43690,0.2028201,1007.911,1.448715e-05,12.47,1006.11,0.0,,-4.528,99.89644,,,1.80078
2016-12-12T20:24:52Z,13.40005,-4.120854,0.0009658098,92.49827,0,1156,8.9768,-1.864105,,43690,0.06760669,1007.911,4.829049e-06,11.45,1006.11,0.0,,-4.053,118.3574,,,1.80078
2016-12-12T20:39:56Z,13.389,-4.052967,0.0004828712,91.9891,0,1156,7.565599,-1.67207,,43690,0.03380098,1007.911,2.414356e-06,11.43,1006.11,0.0,,-4.053,77.5553,,,1.80078
2016-12-12T20:54:58Z,13.40558,-3.883244,0.0,91.31022,0,1156,6.0368,-1.543293,,43690,0.0,1007.911,0.0,9.96,1006.11,0.0,,-3.883,127.2505,,,1.80078
2016-12-12T21:09:56Z,13.42217,-3.713524,0.0,90.49556,0,1156,3.1556,-1.394184,,43690,0.0,1006.118,0.0,5.312,1004.318,0.0,,-3.646,30.00508,,,1.80078
2016-12-12T21:25:01Z,13.42769,-3.883244,0.0,90.73317,0,1156,6.0172,-1.394184,,43690,0.0,1006.118,0.0,10.05,1004.318,0.0,,-3.883,82.1585,,,1.80078
2016-12-12T21:39:59Z,13.4276,-4.154797,0.0,90.32584,0,1156,6.6052,-1.394184,,43690,0.0,1006.118,0.0,9.96,1004.318,0.0,,-4.155,82.7851,,,1.80078
2016-12-12T21:55:02Z,13.41664,-4.120854,0.0,89.74878,0,1156,5.5272,-1.394184,,43690,0.0,1006.118,0.0,9.389999,1004.318,0.0,,-4.053,107.6568,,,1.80078
2016-12-12T22:10:04Z,13.42217,-3.951882,0.0,89.23776,0,1156,2.0776,-1.373848,,43690,0.0,1004.733,0.0,7.37,1002.933,0.0,,-3.816,88.42277,,,1.80078
2016-12-12T22:25:01Z,13.42769,-3.680698,0.0,89.5763,0,1156,8.8984,-1.351257,,43690,0.0,1004.733,0.0,9.53,1002.933,0.0,,-3.579,105.8701,,,1.80078
2016-12-12T22:40:04Z,13.41616,-3.442715,0.0,89.81483,0,1156,8.918,-1.224739,,43690,0.0,1004.733,0.0,12.49,1002.933,0.0,,-3.408,101.4127,,,1.80078
2016-12-12T22:55:03Z,13.39925,-2.901249,0.0,89.5054,0,1156,10.1136,-1.032703,,43690,0.0,1004.733,0.0,10.98,1002.933,0.0,,-2.798,93.02181,,,1.80078
2016-12-12T23:10:06Z,13.38685,-2.802967,0.0,88.91991,0,1156,7.9772,-0.7548142,,43690,0.0,1002.491,0.0,11.33,1000.691,0.0,,-2.735,78.94052,,,1.80078
2016-12-12T23:25:07Z,13.38121,-2.769375,0.0,88.78334,0,1156,4.2532,-0.5853691,,43690,0.0,1002.491,0.0,11.15,1000.691,0.0,,-2.668,70.67472,,,1.80078
2016-12-12T23:40:05Z,13.38054,-2.60083,0.0,88.2376,0,1156,7.761599,-0.4362602,,43690,0.0,1002.491,0.0,9.019999,1000.691,0.0,,-2.566,120.4542,,,1.80078
2016-12-12T23:55:07Z,13.36253,-2.196983,0.0,88.02606,0,1156,7.5852,-0.2238922,,43690,0.0,1002.491,0.0,10.11,1000.691,0.0,,-2.129,102.5901,,,1.80078
2016-12-13T00:10:06Z,13.35683,-2.130924,0,88.63265,0,1156,8.7024,-0.03185272,,43690,0,1001.069,0,11.88,999.2683,0,,-1.995,98.56174,,,1.80078
2016-12-13T00:25:07Z,13.35683,-2.198826,0,89.27727,0,1156,4.7824,0.1805153,,43690,0,1001.069,0,8.389999,999.2683,0,,-2.063,85.96136,,,1.80078
2016-12-13T00:40:11Z,13.34578,-1.961296,0,89.82021,0,1156,6.781599,0.3522186,,43690,0,1001.069,0,6.39,999.2683,0,,-1.859,102.8501,,,1.80078
2016-12-13T00:55:12Z,13.35131,-2.130959,0,90.29526,0,1156,4.4492,0.3522186,,43690,0,1001.069,0,6.527,999.2683,0,,-2.029,77.84226,,,1.80078
2016-12-13T01:10:14Z,13.35131,-2.029163,0,90.73639,0,1156,5.2136,0.3522186,,43690,0,1000.247,0,5.645,998.4461,0,,-1.927,104.2956,,,1.80078
2016-12-13T01:25:12Z,13.35683,-1.927364,0,90.93998,0,1156,3.7436,0.3522186,,43690,0,1000.247,0,5.449,998.4461,0,,-1.859,98.29662,,,1.80078
2016-12-13T01:40:16Z,13.35131,-1.825565,0,91.21145,0,1156,3.8808,0.4358101,,43690,0,1000.247,0,5.39,998.4461,0,,-1.826,91.7917,,,1.80078
2016-12-13T01:55:16Z,13.34578,-1.825565,0,91.34718,0,1156,1.6072,0.541996,,43690,0,1000.247,0,4.88,998.4461,0,,-1.758,103.9824,,,1.80078
2016-12-13T02:10:15Z,13.34578,-1.757698,0,91.55078,0,1156,4.0768,0.5849228,,43690,0,1000.084,0,4.096,998.2832,0,,-1.792,57.67699,,,1.80078
2016-12-13T02:25:20Z,13.34026,-1.859497,0,91.72044,0,1156,1.2348,0.6481819,,43690,0,1000.084,0,3.783,998.2832,0,,-1.826,65.55518,,,1.80078
2016-12-13T02:40:16Z,13.3292,-2.368492,0,91.7883,0,1156,2.0188,0.7340317,,43690,0,1000.084,0,2.411,998.2832,0,,-2.301,52.03939,,,1.80078
2016-12-13T02:55:21Z,13.32368,-2.606022,0,91.8901,0,1156,1.0388,0.7340317,,43690,0,1000.084,0,1.744,998.2832,0,,-2.47,69.02446,,,1.80078
2016-12-13T03:10:19Z,13.33473,-2.775684,0,92.12764,0,1156,1.8424,0.6278458,,43690,0,999.4325,0,3.312,997.6317,0,,-2.708,53.07536,,,1.80078
2016-12-13T03:25:17Z,13.33473,-2.979282,0,92.26337,0,1156,2.3324,0.4358101,,43690,0,999.4325,0,2.979,997.6317,0,,-2.979,54.95456,,,1.80078
2016-12-13T03:40:22Z,13.3292,-3.386475,0,92.3991,0,1156,2.9988,0.1172562,,43690,0,999.4325,0,3.371,997.6317,0,,-3.251,61.24265,,,1.80078
2016-12-13T03:55:23Z,13.34578,-3.420406,0,92.33123,0,1156,1.862,-0.07477951,,43690,0,999.4325,0,3.175,997.6317,0,,-3.353,33.72923,,,1.80078
2016-12-13T04:10:22Z,13.34578,-3.624004,0,92.1955,0,1156,1.8816,-0.158371,,43690,0,999.4325,0,2.078,997.6317,0,,-3.556,19.75569,,,1.80078
2016-12-13T04:25:23Z,13.35154,-3.725803,0,92.02584,0,1156,2.2932,-0.2668152,,43690,0,999.4325,0,3.175,997.6317,0,,-3.556,34.86157,,,1.80078
2016-12-13T04:40:25Z,13.34578,-3.657745,0,91.89059,0,1156,2.1168,-0.3074837,,43690,0,999.4325,0,2.43,997.6317,0,,-3.556,18.02114,,,1.80078
2016-12-13T04:55:27Z,13.34583,-3.556084,0,91.89025,0,1156,0.6468,-0.2871513,,43690,0,999.4325,0,2.352,997.6317,0,,-3.454,25.10422,,,1.80078
2016-12-13T05:10:26Z,13.35154,-3.250687,0,91.75452,0,1156,1.8032,-0.2442245,,43690,0,999.8526,0,3.43,998.0518,0,,-3.149,353.4588,,,1.80078